TimePDT,TemperatureF,Dew PointF,Humidity,Sea Level PressureIn,VisibilityMPH,Wind Direction,Wind SpeedMPH,Gust SpeedMPH,PrecipitationIn,Events,Conditions,WindDirDegrees,DateUTC
12:15 AM,51.8,35.6,54,29.94,10.0,West,10.4,-,N/A,,Clear,280,2012-10-08 07:15:00
12:35 AM,51.8,35.6,54,29.95,10.0,West,9.2,-,N/A,,Clear,280,2012-10-08 07:35:00
12:55 AM,51.8,35.6,54,29.95,10.0,West,10.4,-,N/A,,Clear,270,2012-10-08 07:55:00
1:15 AM,51.8,35.6,54,29.95,10.0,West,11.5,-,N/A,,Clear,270,2012-10-08 08:15:00
1:35 AM,51.8,33.8,50,29.96,10.0,WSW,5.8,-,N/A,,Clear,240,2012-10-08 08:35:00
6:35 AM,42.8,39.2,87,29.99,10.0,West,10.4,-,N/A,,Clear,270,2012-10-08 13:35:00
6:55 AM,42.8,39.2,87,30.00,10.0,West,10.4,-,N/A,,Clear,270,2012-10-08 13:55:00
7:15 AM,42.8,39.2,87,30.00,10.0,West,8.1,-,N/A,,Clear,260,2012-10-08 14:15:00
7:35 AM,42.8,39.2,87,30.01,10.0,South,4.6,-,N/A,,Clear,190,2012-10-08 14:35:00
7:55 AM,37.4,32.0,81,30.02,10.0,SSW,3.5,-,N/A,,Clear,200,2012-10-08 14:55:00
8:15 AM,37.4,33.8,87,30.02,10.0,WSW,3.5,-,N/A,,Clear,240,2012-10-08 15:15:00
8:35 AM,39.2,37.4,93,30.02,10.0,SSW,3.5,-,N/A,,Clear,210,2012-10-08 15:35:00
8:55 AM,44.6,39.2,81,30.02,10.0,SSW,3.5,-,N/A,,Clear,210,2012-10-08 15:55:00
9:15 AM,46.4,42.8,87,30.02,10.0,WSW,4.6,-,N/A,,Clear,250,2012-10-08 16:15:00
9:35 AM,48.2,42.8,82,30.03,10.0,West,3.5,-,N/A,,Clear,260,2012-10-08 16:35:00
9:55 AM,50.0,41.0,71,30.02,10.0,WSW,3.5,-,N/A,,Clear,240,2012-10-08 16:55:00
10:15 AM,51.8,41.0,67,30.02,10.0,Calm,Calm,-,N/A,,Clear,0,2012-10-08 17:15:00
10:35 AM,53.6,39.2,58,30.02,10.0,Calm,Calm,-,N/A,,Clear,0,2012-10-08 17:35:00
10:55 AM,57.2,41.0,55,30.02,10.0,Calm,Calm,-,N/A,,Clear,0,2012-10-08 17:55:00
11:15 AM,57.2,41.0,55,30.02,10.0,SE,5.8,-,N/A,,Clear,140,2012-10-08 18:15:00
11:35 AM,60.8,39.2,45,30.01,10.0,South,3.5,-,N/A,,Clear,170,2012-10-08 18:35:00
11:55 AM,60.8,39.2,45,30.01,10.0,SSW,3.5,-,N/A,,Clear,210,2012-10-08 18:55:00
12:15 PM,62.6,39.2,42,30.01,10.0,SSW,3.5,-,N/A,,Clear,210,2012-10-08 19:15:00
12:35 PM,62.6,39.2,42,30.01,10.0,Calm,Calm,-,N/A,,Clear,0,2012-10-08 19:35:00
12:55 PM,64.4,39.2,40,30.00,10.0,Calm,Calm,-,N/A,,Clear,0,2012-10-08 19:55:00
1:15 PM,66.2,41.0,40,30.00,10.0,Calm,Calm,-,N/A,,Clear,0,2012-10-08 20:15:00
1:35 PM,66.2,41.0,40,30.00,10.0,Calm,Calm,-,N/A,,Clear,0,2012-10-08 20:35:00
1:55 PM,68.0,42.8,40,29.99,10.0,Calm,Calm,-,N/A,,Clear,0,2012-10-08 20:55:00
2:15 PM,68.0,42.8,40,29.99,10.0,Calm,Calm,-,N/A,,Clear,0,2012-10-08 21:15:00
2:35 PM,69.8,44.6,40,29.99,10.0,West,5.8,-,N/A,,Clear,280,2012-10-08 21:35:00
2:55 PM,69.8,44.6,40,29.99,10.0,NW,6.9,-,N/A,,Clear,310,2012-10-08 21:55:00
3:15 PM,69.8,44.6,40,29.99,10.0,WNW,11.5,-,N/A,,Clear,290,2012-10-08 22:15:00
3:35 PM,71.6,46.4,41,29.99,10.0,WNW,10.4,-,N/A,,Clear,300,2012-10-08 22:35:00
3:55 PM,71.6,46.4,41,29.99,10.0,WNW,11.5,-,N/A,,Clear,290,2012-10-08 22:55:00
4:15 PM,69.8,46.4,43,29.98,10.0,WNW,13.8,-,N/A,,Clear,290,2012-10-08 23:15:00
4:35 PM,69.8,46.4,43,29.98,10.0,WNW,12.7,-,N/A,,Clear,290,2012-10-08 23:35:00
4:55 PM,69.8,46.4,43,29.98,10.0,WNW,13.8,-,N/A,,Clear,290,2012-10-08 23:55:00
5:15 PM,66.2,48.2,52,29.98,10.0,WNW,11.5,-,N/A,,Clear,300,2012-10-09 00:15:00
5:35 PM,66.2,46.4,49,29.99,10.0,WNW,10.4,-,N/A,,Clear,300,2012-10-09 00:35:00
5:55 PM,62.6,46.4,55,29.99,10.0,WNW,12.7,-,N/A,,Clear,290,2012-10-09 00:55:00
6:35 PM,57.2,46.4,67,29.99,10.0,West,12.7,-,N/A,,Clear,280,2012-10-09 01:35:00
6:55 PM,57.2,46.4,67,30.00,10.0,West,13.8,-,N/A,,Clear,280,2012-10-09 01:55:00
7:15 PM,55.4,46.4,72,30.00,10.0,West,12.7,-,N/A,,Clear,280,2012-10-09 02:15:00
7:35 PM,55.4,46.4,72,30.01,10.0,West,13.8,19.6,N/A,,Clear,270,2012-10-09 02:35:00
7:55 PM,53.6,46.4,77,30.02,10.0,West,15.0,-,N/A,,Clear,280,2012-10-09 02:55:00
8:15 PM,53.6,46.4,77,30.02,10.0,West,17.3,-,N/A,,Clear,280,2012-10-09 03:15:00
8:55 PM,51.8,46.4,82,30.02,10.0,West,12.7,-,N/A,,Clear,270,2012-10-09 03:55:00
9:15 PM,51.8,46.4,82,30.03,10.0,West,12.7,-,N/A,,Clear,270,2012-10-09 04:15:00
9:35 PM,51.8,46.4,82,30.04,10.0,West,11.5,16.1,N/A,,Clear,270,2012-10-09 04:35:00
10:15 PM,51.8,44.6,76,30.05,10.0,West,10.4,-,N/A,,Clear,280,2012-10-09 05:15:00
10:35 PM,50.0,44.6,82,30.06,10.0,West,10.4,-,N/A,,Clear,280,2012-10-09 05:35:00
10:55 PM,50.0,44.6,82,30.07,10.0,West,11.5,-,N/A,,Clear,280,2012-10-09 05:55:00
11:15 PM,48.2,44.6,87,30.08,10.0,West,10.4,-,N/A,,Clear,270,2012-10-09 06:15:00
11:35 PM,48.2,44.6,87,30.07,10.0,West,8.1,-,N/A,,Clear,270,2012-10-09 06:35:00
11:55 PM,48.2,44.6,87,30.07,10.0,West,6.9,-,N/A,,Clear,260,2012-10-09 06:55:00